Weather History for Oscoda, MI

Change the Weather History Date:

Wednesday, May 9, 2012

  Actual Average Record
Temperature  
Mean Temperature 48 °F -  
Max Temperature 55 °F 59 °F 78 °F (2001)
Min Temperature 40 °F 41 °F 30 °F (2008)
Degree Days  
Heating Degree Days 18    
Moisture  
Dew Point 44 °F    
Average Humidity 84    
Maximum Humidity 99    
Minimum Humidity 57    
Precipitation  
Precipitation 0.00 in - - ()
Sea Level Pressure  
Sea Level Pressure 29.78 in    
Wind  
Wind Speed 6 mph (WNW)    
Max Wind Speed 16 mph    
Max Gust Speed 22 mph    
Visibility 8 miles    
Events Fog , Rain    
Averages and records for this station are not official NWS values.
T = Trace of Precipitation, MM = Missing Value Source: NWS Daily Summary

Daily Weather History Graph

Daily Weather History Graph

Search for Another Location

Airport:

Trip Planner

Search our weather history database for the weather conditions in past years. The results will help you decide how hot, cold, wet, or windy it might be!

Date:

Astronomy

May. 09, 2012 Rise Set
Actual Time 6:12 AM EDT 8:48 PM EDT
Civil Twilight 5:39 AM EDT 9:21 PM EDT
Nautical Twilight 4:58 AM EDT 10:02 PM EDT
Astronomical Twilight 4:11 AM EDT 10:50 PM EDT
Moon No Moon Rise 9:24 AM EDT (5/9)
Length of Visible Light 15h 41m
Length of Day
14h 35m
Waning Gibbous, 83% of the Moon is Illuminated
May 9
Waning Gibbous
May 12
Last Quarter
May 20
New
May 28
First Quarter
Jun 4
Full

Hourly Weather History & Observations

Time (EDT) Temp. Windchill Dew Point Humidity Pressure Visibility Wind Dir Wind Speed Gust Speed Precip Events Conditions
12:14 AM 46.0 °F - 45.3 °F 97% 29.77 in 0.5 mi Calm Calm - N/A Fog Fog
12:34 AM 45.7 °F - 45.0 °F 97% 29.77 in 3.0 mi Calm Calm - N/A   Scattered Clouds
12:53 AM 42.6 °F 39.9 °F 41.9 °F 97% 29.76 in 0.5 mi SW 4.6 mph - N/A Fog Fog
1:14 AM 44.2 °F - 43.7 °F 98% 29.76 in 2.5 mi Calm Calm - N/A   Mostly Cloudy
1:33 AM 40.6 °F 38.6 °F 40.1 °F 98% 29.76 in 1.0 mi SW 3.5 mph - N/A   Mostly Cloudy
1:53 AM 41.9 °F 39.0 °F 41.4 °F 98% 29.77 in 0.5 mi WSW 4.6 mph - N/A Fog Fog
2:14 AM 43.7 °F - 43.2 °F 98% 29.76 in 2.5 mi Calm Calm - N/A   Overcast
2:34 AM 43.3 °F 41.7 °F 43.0 °F 99% 29.75 in 3.0 mi SSW 3.5 mph - N/A   Overcast
2:53 AM 46.0 °F 43.9 °F 45.7 °F 99% 29.75 in 7.0 mi SSW 4.6 mph - N/A   Overcast
3:14 AM 45.7 °F 43.4 °F 45.1 °F 98% 29.75 in 7.0 mi SW 4.6 mph - N/A   Mostly Cloudy
3:33 AM 45.7 °F 44.4 °F 45.1 °F 98% 29.75 in 7.0 mi SW 3.5 mph - N/A   Overcast
3:53 AM 45.0 °F 42.6 °F 44.6 °F 99% 29.74 in 7.0 mi WSW 4.6 mph - N/A   Overcast
4:14 AM 44.4 °F 39.5 °F 43.9 °F 98% 29.74 in 7.0 mi West 9.2 mph - N/A   Mostly Cloudy
4:34 AM 44.1 °F 39.0 °F 43.5 °F 98% 29.74 in 7.0 mi WNW 9.2 mph - N/A   Mostly Cloudy
4:53 AM 43.7 °F 41.1 °F 43.2 °F 98% 29.74 in 7.0 mi WNW 4.6 mph - N/A   Scattered Clouds
5:14 AM 44.1 °F 41.5 °F 43.7 °F 99% 29.74 in 7.0 mi WNW 4.6 mph - N/A   Scattered Clouds
5:33 AM 44.8 °F 40.4 °F 44.2 °F 98% 29.74 in 5.0 mi WNW 8.1 mph - N/A   Mostly Cloudy
5:53 AM 46.0 °F 43.1 °F 45.5 °F 98% 29.75 in 4.0 mi WNW 5.8 mph - N/A   Overcast
6:14 AM 46.9 °F - 46.4 °F 98% 29.75 in 5.0 mi WNW 10.4 mph - N/A   Overcast
6:33 AM 47.3 °F - 46.8 °F 98% 29.75 in 5.0 mi West 6.9 mph - N/A   Overcast
6:53 AM 47.7 °F - 46.9 °F 97% 29.75 in 5.0 mi Calm Calm - N/A   Overcast
7:14 AM 48.2 °F - 47.3 °F 97% 29.75 in 5.0 mi West 5.8 mph - N/A   Overcast
7:33 AM 48.4 °F - 47.5 °F 97% 29.75 in 4.0 mi West 8.1 mph - N/A   Overcast
7:54 AM 49.1 °F - 48.2 °F 97% 29.76 in 7.0 mi West 10.4 mph - N/A   Overcast
8:14 AM 49.6 °F - 48.2 °F 95% 29.76 in 7.0 mi NW 5.8 mph - N/A   Overcast
8:33 AM 50.0 °F - 48.2 °F 94% 29.76 in 10.0 mi NW 8.1 mph - N/A   Overcast
8:54 AM 50.4 °F - 47.8 °F 91% 29.76 in 10.0 mi NNW 8.1 mph - N/A   Overcast
9:14 AM 50.2 °F - 47.7 °F 91% 29.76 in 10.0 mi NW 11.5 mph 19.6 mph N/A Rain Rain
9:33 AM 50.2 °F - 48.0 °F 92% 29.76 in 10.0 mi NW 8.1 mph 18.4 mph N/A Rain Light Rain
9:54 AM 50.9 °F - 48.6 °F 92% 29.76 in 10.0 mi NW 12.7 mph 18.4 mph N/A   Overcast
10:14 AM 50.9 °F - 48.2 °F 90% 29.76 in 10.0 mi WNW 16.1 mph - N/A   Drizzle
10:33 AM 50.2 °F - 47.5 °F 90% 29.77 in 10.0 mi NNW 11.5 mph 17.3 mph N/A Rain Light Rain
10:54 AM 49.5 °F - 46.9 °F 91% 29.78 in 10.0 mi NW 12.7 mph 18.4 mph N/A Rain Rain
11:14 AM 48.4 °F - 46.6 °F 93% 29.78 in 5.0 mi NW 12.7 mph - N/A Rain Light Rain
11:33 AM 49.1 °F - 47.3 °F 93% 29.79 in 10.0 mi NW 10.4 mph 16.1 mph N/A   Overcast
11:54 AM 50.2 °F - 47.3 °F 90% 29.79 in 10.0 mi NW 13.8 mph - N/A   Overcast
12:14 PM 51.4 °F - 47.5 °F 86% 29.79 in 10.0 mi NNW 10.4 mph 17.3 mph N/A   Overcast
12:33 PM 51.1 °F - 47.1 °F 86% 29.79 in 10.0 mi WNW 11.5 mph - N/A   Overcast
12:54 PM 52.0 °F - 46.6 °F 82% 29.78 in 10.0 mi WNW 11.5 mph - N/A   Overcast
1:13 PM 51.8 °F - 46.2 °F 81% 29.79 in 10.0 mi NW 15.0 mph 20.7 mph N/A   Overcast
1:33 PM 52.0 °F - 45.7 °F 79% 29.79 in 10.0 mi WNW 11.5 mph 17.3 mph N/A   Overcast
1:54 PM 51.1 °F - 45.7 °F 82% 29.79 in 10.0 mi NW 13.8 mph 17.3 mph N/A   Overcast
2:14 PM 52.7 °F - 45.1 °F 75% 29.79 in 10.0 mi WNW 12.7 mph - N/A   Overcast
2:33 PM 52.0 °F - 44.6 °F 76% 29.79 in 10.0 mi NW 13.8 mph - N/A   Overcast
2:54 PM 53.4 °F - 44.4 °F 72% 29.79 in 10.0 mi NNW 9.2 mph 17.3 mph N/A   Overcast
3:14 PM 54.5 °F - 44.1 °F 68% 29.79 in 10.0 mi NNW 11.5 mph 19.6 mph N/A   Overcast
3:33 PM 52.3 °F - 44.2 °F 74% 29.79 in 10.0 mi NW 10.4 mph 21.9 mph N/A   Overcast
3:54 PM 53.8 °F - 44.6 °F 71% 29.79 in 10.0 mi NNW 10.4 mph - N/A   Overcast
4:13 PM 55.0 °F - 44.2 °F 67% 29.79 in 10.0 mi NNW 11.5 mph 16.1 mph N/A   Overcast
4:33 PM 53.6 °F - 43.7 °F 69% 29.79 in 10.0 mi NNW 12.7 mph - N/A   Overcast
4:54 PM 53.6 °F - 43.2 °F 68% 29.79 in 10.0 mi NW 16.1 mph - N/A   Overcast
5:13 PM 53.4 °F - 43.5 °F 69% 29.79 in 10.0 mi NW 13.8 mph 19.6 mph N/A Rain Light Rain
5:33 PM 54.0 °F - 42.6 °F 65% 29.80 in 10.0 mi NW 11.5 mph 17.3 mph N/A   Overcast
5:54 PM 54.5 °F - 42.1 °F 63% 29.79 in 10.0 mi NNW 8.1 mph - N/A   Overcast
6:13 PM 54.5 °F - 41.5 °F 62% 29.79 in 10.0 mi NW 9.2 mph 16.1 mph N/A   Overcast
6:33 PM 55.0 °F - 42.3 °F 62% 29.79 in 10.0 mi NNW 6.9 mph - N/A   Overcast
6:54 PM 54.9 °F - 41.5 °F 61% 29.79 in 10.0 mi NW 8.1 mph - N/A   Overcast
7:13 PM 54.7 °F - 41.4 °F 61% 29.79 in 10.0 mi NNW 5.8 mph - N/A   Overcast
7:34 PM 54.7 °F - 41.4 °F 61% 29.79 in 10.0 mi NW 3.5 mph - N/A   Overcast
7:54 PM 55.8 °F - 41.4 °F 58% 29.79 in 10.0 mi WNW 9.2 mph - N/A   Mostly Cloudy
8:13 PM 54.9 °F - 39.9 °F 57% 29.80 in 10.0 mi NW 4.6 mph - N/A   Mostly Cloudy
8:34 PM 53.4 °F - 39.2 °F 59% 29.81 in 10.0 mi NNW 3.5 mph - N/A   Overcast
8:54 PM 52.2 °F - 43.2 °F 71% 29.81 in 10.0 mi South 4.6 mph - N/A   Overcast
9:13 PM 50.7 °F - 43.0 °F 75% 29.82 in 10.0 mi ENE 4.6 mph - N/A   Overcast
9:34 PM 47.7 °F - 40.3 °F 76% 29.82 in 10.0 mi NNE 4.6 mph - N/A   Overcast
9:54 PM 47.8 °F - 40.5 °F 76% 29.83 in 10.0 mi Calm Calm - N/A   Scattered Clouds
10:13 PM 47.7 °F - 41.0 °F 78% 29.84 in 10.0 mi West 9.2 mph - N/A   Mostly Cloudy
10:34 PM 46.2 °F 45.0 °F 41.9 °F 85% 29.84 in 10.0 mi West 3.5 mph - N/A   Overcast
10:54 PM 45.5 °F 44.2 °F 41.9 °F 87% 29.85 in 10.0 mi West 3.5 mph - N/A   Overcast
11:13 PM 45.7 °F 42.0 °F 41.2 °F 84% 29.85 in 10.0 mi West 6.9 mph - N/A   Overcast
11:34 PM 45.1 °F 42.0 °F 37.4 °F 74% 29.85 in 10.0 mi WNW 5.8 mph - N/A   Scattered Clouds
11:53 PM 44.2 °F 41.0 °F 36.5 °F 74% 29.85 in 10.0 mi West 5.8 mph - N/A   Scattered Clouds